Flag for Netherlands Weather past 2 weeks in 's-Hertogenbosch, Netherlands

Now
61 °F

Passing clouds.


Feels Like: 61 °F
Forecast: 60 / 75 °F
Wind: 2 mph from Northeast

Location: Volkel

Current Time: Aug 2, 2014 at 4:55:14 AM

Latest Report: Aug 2, 2014 at 4:25 AM


Visibility: N/A

Pressure: 29.71 "Hg

Humidity: 94%

Dew point: 59 °F

Location of 's-HertogenboschLocation

Historic Weather in 's-Hertogenbosch — Graph

°F

's-Hertogenbosch temperature yesterday

Maximum temperature yesterday: 81 °F (at 3:25 PM)
Minimum temperature yesterday: 55 °F (at 5:02 AM)
Average temperature yesterday: 68 °F

Past Weeks' High & Low Weather Summary

 TemperatureHumidityPressure
High91 °F (Jul 19, 1:25 PM)100% (Jul 20, 10:55 PM)30.09 "Hg (Jul 20, 10:55 PM)
Low52 °F (Jul 31, 5:25 AM)31% (Jul 19, 2:55 PM)29.74 "Hg (Jul 20, 3:25 AM)
Average70 °F78%29.92 "Hg
* Reported Jul 18 3:25 AM — Aug 2 3:55 AM, 's-Hertogenbosch, Weather by CustomWeather, © 2014

Note: Actual official high and low records may vary slightly from our data, if they occured in-between our weather recording intervals... More about our weather records

Advertising

's-Hertogenbosch weather history for previous 24 hours

 ConditionsComfort  
Time TempWeatherWind HumidityBarometerVisibility
3:55 AM
Aug 2
61 °FCool.3 mph94%29.74 "HgN/A
3:25 AM63 °FMild.5 mph88%29.74 "HgN/A
2:55 AM61 °FCool.3 mph94%29.74 "HgN/A
2:25 AM61 °FCool.3 mph94%29.74 "HgN/A
1:55 AM64 °FMild.5 mph88%29.74 "HgN/A
1:25 AM66 °FMild.3 mph83%29.77 "HgN/A
12:55 AM64 °FOvercast.2 mph88%29.77 "HgN/A
12:25 AM66 °FMostly cloudy.2 mph83%29.77 "HgN/A
11:55 PM
Aug 1
66 °FOvercast.2 mph83%29.77 "HgN/A
11:25 PM66 °FOvercast.2 mph83%29.77 "HgN/A
10:55 PM64 °FOvercast.3 mph88%29.77 "HgN/A
10:25 PM64 °FScattered clouds.3 mph88%29.77 "HgN/A
9:59 PM64 °FFog.3 mph88%29.77 "Hg1 mi
9:25 PM68 °FMild.1 mph83%29.77 "HgN/A
8:55 PM70 °FMild.2 mph73%29.77 "HgN/A
8:25 PM72 °FPassing clouds.1 mph73%29.77 "HgN/A
7:55 PM73 °FPassing clouds.1 mph74%29.77 "HgN/A
7:25 PM77 °FPassing clouds.No wind57%29.77 "HgN/A
6:55 PM79 °FPassing clouds.2 mph45%29.77 "HgN/A
6:25 PM81 °FWarm.3 mph42%29.77 "HgN/A
5:55 PM81 °FPassing clouds.3 mph42%29.80 "HgN/A
5:25 PM81 °FPassing clouds.6 mph42%29.80 "HgN/A
4:55 PM81 °FWarm.5 mph42%29.80 "HgN/A
4:25 PM81 °FPassing clouds.8 mph45%29.80 "HgN/A
4:04 PM81 °FWarm.6 mph45%29.80 "HgN/A
3:55 PM81 °FWarm.7 mph45%29.80 "HgN/A
3:25 PM81 °FPassing clouds.8 mph48%29.80 "HgN/A
2:55 PM79 °FPassing clouds.7 mph51%29.80 "HgN/A
2:25 PM79 °FScattered clouds.6 mph54%29.83 "HgN/A
1:55 PM79 °FBroken clouds.6 mph58%29.83 "HgN/A
1:25 PM77 °FScattered clouds.5 mph54%29.83 "HgN/A
12:55 PM77 °FPassing clouds.3 mph54%29.83 "HgN/A
12:25 PM75 °FMostly cloudy.2 mph57%29.83 "HgN/A
11:58 AM75 °FPassing clouds.3 mph57%29.83 "HgN/A
11:25 AM75 °FScattered clouds.2 mph57%29.86 "HgN/A
10:55 AM73 °FMild.1 mph61%29.86 "HgN/A
10:25 AM72 °FPassing clouds.2 mph65%29.86 "HgN/A
9:55 AM72 °FPartly sunny.3 mph65%29.86 "HgN/A
9:25 AM70 °FPassing clouds.2 mph69%29.86 "HgN/A
8:55 AM68 °FMild.3 mph73%29.86 "HgN/A
8:25 AM64 °FFog.1 mph88%29.86 "Hg4 mi
8:02 AM61 °FFog.1 mph100%29.86 "Hg3 mi
7:55 AM61 °FFog.1 mph94%29.86 "Hg3 mi
7:25 AM57 °FFog.No wind100%29.86 "Hg2 mi
7:00 AM55 °FFog.1 mph100%29.86 "Hg2 mi
6:55 AM55 °FFog.No wind100%29.86 "Hg2 mi
6:25 AM55 °FFog.No wind100%29.86 "Hg3 mi
5:55 AM55 °FFog.1 mph94%29.86 "Hg3 mi
5:25 AM55 °FFog.2 mph100%29.86 "Hg3 mi
5:02 AM55 °FFog.1 mph100%29.86 "Hg3 mi
4:25 AM57 °FFog.No wind94%29.89 "Hg3 mi
Weather by CustomWeather, © 2014

See weather overviewHow to use our weather pages